This demonstration page uses our WeatherBlox Daily Observations layout. Learn more.

39.92423, -83.80882

Hourly Observations for April 25, 2015

Temp ( °F °C ) Dew Point ( °F °C ) Humidity (%) Winds ( mph kmh ) Pressure ( in mb ) Visibility ( mi km ) Precip ( " mm )
12:56 am 00:56 Mostly Cloudy 48 8.8 38 3.3 69 69 E 5 7 29.93 1014 8 12.87472 0 0
1:56 am 01:56 Cloudy 47 8.3 41 5 80 80 ENE 6 9 29.92 1013 7 11.26538 0 0.0254
2:56 am 02:56 Cloudy 47 8.3 41 5 80 80 NE 5 7 29.91 1013 7 11.26538 0 0
3:56 am 03:56 Cloudy 48 8.8 38 3.3 69 69 SE 7 11 29.89 1012 7 11.26538 0 0
4:56 am 04:56 Cloudy 47 8.3 41 5 80 80 NE 7 11 29.89 1012 7 11.26538 0 0.0254
5:56 am 05:56 Cloudy 48 8.8 37 2.7 66 66 ESE 9 15 29.87 1012 8 12.87472 0 0.0254
6:56 am 06:56 Cloudy 47 8.3 37 2.7 68 68 E 9 15 29.85 1011 7 11.26538 0 0
7:56 am 07:56 Cloudy with Haze 47 8.3 36 2.2 66 66 E 14 22 29.84 1011 6 9.65604 0 0
8:56 am 08:56 Cloudy with Haze 47 8.3 34 1.1 61 61 E 15 24 29.83 1010 6 9.65604 0 0
9:56 am 09:56 Cloudy with Haze 47 8.3 32 0 56 56 E 20 31 29.83 1010 6 9.65604 0 0
10:56 am 10:56 Cloudy with Haze 46 7.7 30 -1.1 54 54 E 21 33 29.8 1009 6 9.65604 0 0
11:56 am 11:56 Mostly Cloudy with Light Rain 42 5.5 34 1.1 74 74 E 22 35 29.8 1009 2.5 4.02335 0 0.0254
12:06 pm 12:06 Cloudy with Light Rain 43 6 34 1 71 71 E 16 26 29.8 1009 4 6.43736 0 0.0254
12:23 pm 12:23 Cloudy with Light Rain 41 5 36 2 81 81 E 16 26 29.83 1010 2 3.21868 0.03 0.762
12:29 pm 12:29 Cloudy with Rain 39 4 36 2 87 87 ENE 16 26 29.83 1010 1.25 2.011675 0.05 1.27
12:40 pm 12:40 Cloudy with Light Rain 39 4 36 2 87 87 E 16 26 29.8 1009 1.75 2.816345 0.08 2.032
12:47 pm 12:47 Mostly Cloudy with Light Rain 39 4 36 2 87 87 ESE 17 28 29.8 1009 2 3.21868 0.1 2.54
12:56 pm 12:56 Cloudy with Light Rain 41 5 38 3.3 89 89 ESE 14 22 29.78 1009 2.5 4.02335 0.12 3.048
1:22 pm 13:22 Cloudy with Light Rain 43 6 37 3 81 81 ESE 14 22 29.8 1009 3 4.82802 0.02 0.508
1:47 pm 13:47 Cloudy with Light Rain 41 5 39 4 93 93 E 14 22 29.77 1008 2 3.21868 0.04 1.016
1:56 pm 13:56 Mostly Cloudy with Light Rain 41 5 39 3.8 92 92 E 16 26 29.73 1007 2 3.21868 0.05 1.27
2:30 pm 14:30 Cloudy with Light Rain 43 6 39 4 87 87 E 15 24 29.77 1008 3 4.82802 0.03 0.762
2:56 pm 14:56 Cloudy with Rain 42 5.5 40 4.4 93 93 NE 15 24 29.73 1007 2 3.21868 0.06 1.524
3:03 pm 15:03 Cloudy with Rain 43 6 39 4 87 87 ENE 14 22 29.77 1008 1.5 2.41401 0.04 1.016
3:15 pm 15:15 Cloudy with Rain 43 6 41 5 93 93 ENE 13 20 29.74 1007 1.75 2.816345 0.1 2.54
3:22 pm 15:22 Mostly Cloudy with Rain 43 6 39 4 87 87 E 16 26 29.71 1006 1.75 2.816345 0.13 3.302
3:34 pm 15:34 Mostly Cloudy with Light Rain 43 6 39 4 87 87 E 18 30 29.71 1006 2 3.21868 0.15 3.81
3:56 pm 15:56 Cloudy with Rain 42 5.5 41 5 97 97 NE 10 17 29.73 1007 2 3.21868 0.19 4.826
4:26 pm 16:26 Cloudy with Rain 43 6 41 5 93 93 NNE 9 15 29.77 1008 1.5 2.41401 0.07 1.778
4:33 pm 16:33 Mostly Cloudy with Heavy Rain 43 6 41 5 93 93 NNE 9 15 29.77 1008 1.5 2.41401 0.1 2.54
4:49 pm 16:49 Cloudy with Light Rain 43 6 43 6 100 100 NNE 10 17 29.77 1008 2.5 4.02335 0.13 3.302
4:56 pm 16:56 Cloudy with Light Rain 43 6.1 42 5.5 96 96 NE 8 13 29.75 1007 3 4.82802 0.13 3.302
5:07 pm 17:07 Cloudy with Mist and Fog 43 6 41 5 93 93 ENE 20 31 29.71 1006 4 6.43736 0 0.0254
5:56 pm 17:56 Mostly Cloudy with Mist and Fog 44 6.6 42 5.5 93 93 ENE 10 17 29.72 1006 5 8.0467 0.01 0.254
6:10 pm 18:10 Mostly Cloudy with Mist and Fog 45 7 41 5 87 87 ENE 15 24 29.74 1007 5 8.0467 0 0
6:36 pm 18:36 Cloudy with Mist and Fog 43 6 41 5 93 93 ENE 16 26 29.74 1007 5 8.0467 0 0
6:56 pm 18:56 Cloudy with Mist and Fog 44 6.6 41 5 90 90 ENE 15 24 29.72 1006 5 8.0467 0 0
7:20 pm 19:20 Partly Cloudy with Mist and Fog 45 7 41 5 87 87 ENE 16 26 29.68 1005 5 8.0467 0 0
7:56 pm 19:56 Sunny with Mist and Fog 43 6.1 40 4.4 89 89 ENE 17 28 29.68 1005 6 9.65604 0 0
8:56 pm 20:56 Mostly Clear with Mist and Fog 42 5.5 41 5 97 97 ENE 15 24 29.68 1005 6 9.65604 0 0
9:56 pm 21:56 Cloudy with Mist and Fog 44 6.6 41 5 90 90 NE 13 20 29.71 1006 6 9.65604 0 0
10:26 pm 22:26 Cloudy with Mist and Fog 43 6 41 5 93 93 NE 14 22 29.74 1007 6 9.65604 0 0
10:38 pm 22:38 Mostly Cloudy with Mist and Fog 43 6 41 5 93 93 NE 17 28 29.74 1007 6 9.65604 0 0
10:56 pm 22:56 Mostly Cloudy with Mist and Fog 43 6.1 40 4.4 89 89 NE 15 24 29.72 1006 6 9.65604 0 0
11:56 pm 23:56 Cloudy 42 5.5 40 4.4 93 93 NE 16 26 29.73 1007 7 11.26538 0 0

Powered by AerisWeather